User: anonymous   Login
Location: Holcomb Observatory
(44.4922°N, 73.1654°W)
Time: 01:25:05
(UTC-05:00)
Language:

Cosmos 1727 Rocket - Orbit

View from above orbital plane
View from above orbital plane
View from above satellite
View from above satellite

Ground track
Ground track

The orbit data is extracted from the following two-line orbital elements,

1 16511U 86008B   14329.71545549  .00000031  00000-0  16770-4 0  6238
2 16511 082.9448 192.8968 0024409 016.1697 046.0664 13.75776619447781
Epoch (UTC): 25 November 2014 17:10:15
Eccentricity: 0.0024409
inclination: 82.9448°
perigee height: 961 km
apogee height: 997 km
right ascension of ascending node: 192.8968°
argument of perigee: 16.1697°
revolutions per day: 13.75776619
mean anomaly at epoch: 46.0664°
orbit number at epoch: 44778

The dashed part of the orbit path shows where the satellite is in the earth's shadow,  

DLR